Location: Falniów
(50.3639°N, 19.9642°E)
Time: 19:56:49
(UTC+00:00)

SL-08 R/B - Pass Details

Date: 26 April 2026
Orbit: 667 x 728 km, 98.5° (Epoch: 13 May)

Event Time Altitude Azimuth Distance (km) Brightness Sun altitude
Rises 21:14:14 0° 1° (N) 3,164 7.8 -23.3°
Reaches altitude 10° 21:17:45 10° 335° (NNW) 2,237 7.0 -23.5°
Maximum altitude 21:19:54 13° 308° (NW) 2,032 6.4 -23.7°
Drops below altitude 10° 21:22:04 10° 282° (WNW) 2,227 6.3 -23.8°
Sets 21:25:34 0° 255° (WSW) 3,136 6.7 -24.0°
